[[{"header":{"parameterUnit":"m.s-1","parameterCategory":1,"la1":30.2991,"la2":30.254,"lo1":-89.0895,"lo2":-89.0444,"dy":0.0017,"dx":0.0017,"nx":28,"ny":28,"refTime":"2024-08-11T03:00:00:Z","depth":0,"parameterNumber":2,"parameterNumberName":"U-component_of_WINDS"},"data":[0,0,0,0,0,0,0,0,0,0,0,0,0,0,0,0,0,0,0,0,0,0,0,0,0,0,0,0,0,0,0,0,0,0,0,0,0,0,0,0,0,0,0,0,0,0,0,0,0,0,0,0,0,0,0,0,0,0,1.7051,1.7053,0,1.718,1.7181,1.7183,1.7195,1.7194,1.7192,1.7191,1.7324,1.7328,1.7333,0,0,0,0,0,0,0,0,0,0,0,0,0,1.6814,1.6818,1.7051,1.7053,1.7054,1.718,1.7182,1.7183,1.7195,1.7194,1.7192,1.7191,1.7322,1.7328,1.7333,0,0,0,0,0,0,0,0,0,0,0,0,0,1.6927,1.682,1.7051,1.7076,1.7079,1.7179,1.7182,1.7184,1.7196,1.7194,1.7192,1.719,1.732,1.7327,1.7334,1.7419,0,0,1.7356,1.7359,0,0,0,0,0,0,0,0,1.6921,1.6936,1.707,1.7074,1.7078,1.7169,1.7147,1.7263,1.7196,1.7151,1.7191,1.7189,1.7274,1.7285,1.7313,1.7425,1.7431,1.7357,1.7361,1.7364,1.7366,0,0,0,0,0,0,0,1.6913,1.6931,1.7102,1.7072,1.7077,1.708,1.7093,1.7169,1.7223,1.7155,1.7156,1.7171,1.7276,1.7307,1.7317,1.7433,1.7357,1.7363,1.7367,1.737,1.7618,1.762,0,0,0,0,0,0,1.6901,1.6924,1.7098,1.7106,1.6993,1.7085,1.7101,1.7142,1.7222,1.7232,1.7173,1.7172,1.7295,1.7308,1.7321,1.7424,1.7364,1.7371,1.7375,1.7616,1.7618,1.7621,0,0,0,0,0,0,1.6896,1.6916,1.7093,1.7015,1.7038,1.7092,1.7138,1.7146,1.7177,1.7235,1.7245,1.7195,1.7294,1.7311,1.7394,1.7429,1.7374,1.7381,1.7613,1.7617,1.762,1.7631,0,0,0,0,0,0,1.6889,1.6914,1.6948,1.7016,1.7042,1.7164,1.714,1.715,1.7189,1.7188,1.7258,1.7268,1.7294,1.7383,1.7401,1.7438,1.7386,1.761,1.7615,1.7619,1.7628,1.7635,1.7641,0,0,0,0,0,1.688,1.6946,1.6949,1.697,1.7085,1.7166,1.7181,1.7209,1.7192,1.7225,1.7262,1.7265,1.7422,1.7392,1.7412,1.7451,1.7608,1.7613,1.7618,1.7625,1.7634,1.764,0,0,0,0,0,0,1.6881,1.6956,1.696,1.705,1.7101,1.7168,1.7211,1.7217,1.7275,1.7272,1.7305,1.7321,1.7402,1.7435,1.74,1.7536,1.7513,1.7523,1.7512,1.752,1.7526,1.7516,1.7392,0,0,0,0,0,1.6892,1.6952,1.7014,1.7087,1.7113,1.7157,1.7194,1.7211,1.7266,1.7287,1.7331,1.7384,1.7444,1.7484,1.7544,1.7633,1.7647,1.767,1.7676,1.7681,1.7688,1.7736,1.7746,1.7638,1.7638,1.7638,0,0,1.6915,1.6963,1.6999,1.7089,1.7131,1.7191,1.7176,1.7241,1.7285,1.7298,1.7378,1.7411,1.7472,1.7558,1.7598,1.7588,1.7721,1.7687,1.7691,1.7696,1.7742,1.7752,1.7761,1.7641,1.7641,1.764,0,0,1.6987,1.703,1.7095,1.7137,1.72,1.7229,1.7244,1.7309,1.7332,1.7413,1.7422,1.7476,1.7581,1.7623,1.7658,1.7743,1.7748,1.7762,1.7794,1.784,1.7848,1.7856,1.7885,1.7895,1.7769,1.7769,1.7769,0,1.7008,1.7099,1.7128,1.7192,1.7231,1.7243,1.7308,1.7348,1.7427,1.7453,1.744,1.757,1.7613,1.7707,1.7728,1.7756,1.7774,1.7754,1.7845,1.7853,1.786,1.7888,1.7899,1.777,1.777,1.777,1.777,0,1.712,1.7184,1.7228,1.7304,1.7347,1.7412,1.7449,1.749,1.7503,1.7532,1.7613,1.7664,1.7733,1.7756,1.7771,1.7853,1.7844,1.7838,1.7816,1.7871,1.7898,1.7909,1.7772,1.7772,1.7771,1.7771,0,0,1.7198,1.7287,1.7303,1.7336,1.7405,1.7455,1.7519,1.7585,1.7619,1.7672,1.7726,1.7813,1.7807,1.7847,1.7865,1.7906,1.7968,1.7894,1.7896,1.7905,1.8059,1.8063,1.8075,1.7971,1.7973,1.7975,1.8054,0,1.7277,1.7392,1.7419,1.7517,1.7574,1.7586,1.7642,1.769,1.7719,1.7771,1.7803,1.7864,1.7852,1.7876,1.7916,1.7952,1.7999,1.7946,1.8021,1.8023,1.8004,1.809,1.8094,1.8166,1.8065,1.8066,1.8068,0,1.7386,1.744,1.7544,1.7604,1.7629,1.7679,1.774,1.7791,1.7845,1.7863,1.7906,1.792,1.7986,1.796,1.805,1.8014,1.8046,1.8067,1.8071,1.8079,1.8048,1.8099,1.819,1.8201,1.8085,1.8084,1.8082,0,1.743,1.753,1.7604,1.7633,1.7705,1.7739,1.777,1.7822,1.786,1.7914,1.7938,1.7999,1.8033,1.8079,1.8109,1.8087,1.8196,1.8173,1.8212,1.8212,1.8235,1.8233,1.8332,1.8256,1.8256,1.8256,1.8256,0,1.7515,1.7578,1.7625,1.7671,1.7741,1.777,1.7838,1.7869,1.7915,1.7966,1.798,1.8028,1.8064,1.8117,1.814,1.821,1.8226,1.8241,1.8247,1.824,1.8238,1.8261,1.8257,1.8259,1.8258,1.8258,1.8257,0,1.7577,1.7611,1.7693,1.7753,1.777,1.7819,1.787,1.7914,1.7943,1.8007,1.8024,1.8069,1.8131,1.8165,1.8243,1.8259,1.8337,1.834,1.8319,1.8321,1.8358,1.8353,1.8475,1.8492,1.8405,1.8406,1.8407,0,1.7629,1.7677,1.7742,1.7777,1.7809,1.7866,1.7904,1.7934,1.7973,1.8036,1.8072,1.8135,1.8187,1.8285,1.8325,1.8384,1.8388,1.8426,1.8397,1.8388,1.8387,1.8384,1.8388,1.8431,1.8432,1.8433,1.8433,0,1.7717,1.7731,1.7785,1.7845,1.7889,1.7938,1.7986,1.8014,1.8051,1.8094,1.8157,1.8197,1.8276,1.8338,1.8399,1.8431,1.8438,1.8442,1.8454,1.8447,1.8432,1.844,1.8332,1.8439,1.8439,1.8438,1.8438,1.8438,1.7775,1.7817,1.7869,1.7928,1.7967,1.8011,1.8055,1.8088,1.8142,1.8208,1.8222,1.8288,1.8339,1.8423,1.8456,1.8508,1.85,1.8518,1.8522,1.8526,1.8527,1.8424,1.8519,1.8519,1.8519,1.8519,1.8519,0,1.7862,1.7895,1.795,1.8016,1.8062,1.8064,1.8117,1.8155,1.8213,1.826,1.831,1.8381,1.844,1.8483,1.8543,1.8577,1.8581,1.8591,1.8589,1.8596,1.8531,1.8514,1.8586,1.8586,1.8586,1.8586,1.8586,1.8586,1.7913,1.7985,1.8004,1.8095,1.8128,1.8193,1.8222,1.8262,1.8299,1.8378,1.8427,1.8455,1.8499,1.8562,1.8616,1.8627,1.8648,1.8658,1.8669,1.8608,1.8601,1.8594,1.8578,1.8663,1.8663,1.873,1.873,1.8731]},{"header":{"parameterUnit":"m.s-1","parameterCategory":1,"la1":30.2991,"la2":30.254,"lo1":-89.0895,"lo2":-89.0444,"dy":0.0017,"dx":0.0017,"nx":28,"ny":28,"refTime":"2024-08-11T03:00:00:Z","depth":0,"parameterNumber":3,"parameterNumberName":"V-component_of_WINDS"},"data":[0,0,0,0,0,0,0,0,0,0,0,0,0,0,0,0,0,0,0,0,0,0,0,0,0,0,0,0,0,0,0,0,0,0,0,0,0,0,0,0,0,0,0,0,0,0,0,0,0,0,0,0,0,0,0,0,0,0,5.351,5.3509,0,5.3435,5.3434,5.3433,5.3297,5.3295,5.3292,5.329,5.3215,5.3216,5.3216,0,0,0,0,0,0,0,0,0,0,0,0,0,5.3538,5.3538,5.351,5.3509,5.3508,5.3435,5.3434,5.3433,5.3298,5.3295,5.3292,5.3289,5.3215,5.3216,5.3216,0,0,0,0,0,0,0,0,0,0,0,0,0,5.3501,5.3538,5.351,5.3432,5.3424,5.3435,5.3434,5.3432,5.3299,5.3295,5.3291,5.3287,5.3215,5.3216,5.3216,5.3298,0,0,5.3218,5.3219,0,0,0,0,0,0,0,0,5.3503,5.35,5.3444,5.3437,5.3428,5.3371,5.3416,5.3388,5.33,5.3346,5.329,5.3285,5.3271,5.3266,5.3261,5.3295,5.3291,5.3218,5.3219,5.3219,5.3219,0,0,0,0,0,0,0,5.3506,5.3503,5.348,5.3444,5.3434,5.3401,5.3391,5.341,5.3331,5.3342,5.3332,5.3325,5.3265,5.3261,5.3258,5.329,5.3218,5.3219,5.3219,5.322,5.3386,5.339,0,0,0,0,0,0,5.352,5.3506,5.3482,5.3478,5.3457,5.3404,5.3393,5.3394,5.3331,5.3317,5.3328,5.3319,5.3261,5.3258,5.3255,5.3345,5.3219,5.322,5.322,5.3382,5.3387,5.3391,0,0,0,0,0,0,5.3521,5.3519,5.3485,5.3489,5.3482,5.3407,5.3409,5.3394,5.3389,5.332,5.3306,5.3337,5.3258,5.3254,5.3288,5.3341,5.322,5.322,5.3377,5.3384,5.3389,5.3528,0,0,0,0,0,0,5.3522,5.352,5.355,5.3491,5.3482,5.352,5.3413,5.3396,5.339,5.3377,5.3325,5.3313,5.3255,5.3288,5.3289,5.334,5.3221,5.3372,5.338,5.3387,5.3519,5.3538,5.3555,0,0,0,0,0,5.3524,5.3593,5.3552,5.355,5.3518,5.3523,5.3518,5.345,5.3395,5.3425,5.338,5.3314,5.3335,5.3292,5.3292,5.3344,5.3369,5.3378,5.3387,5.351,5.3535,5.3555,0,0,0,0,0,0,5.3662,5.3584,5.3538,5.359,5.3564,5.35,5.3535,5.3478,5.3467,5.3456,5.3371,5.3361,5.3405,5.3378,5.3332,5.342,5.3341,5.3351,5.3436,5.3458,5.3476,5.3481,5.3222,0,0,0,0,0,5.3699,5.3708,5.364,5.3692,5.3682,5.3611,5.3611,5.356,5.353,5.3519,5.3476,5.3451,5.3451,5.3453,5.345,5.3514,5.35,5.355,5.3568,5.3584,5.3593,5.3624,5.3645,5.3421,5.3421,5.3421,0,0,5.3774,5.3733,5.3744,5.3719,5.3693,5.3705,5.3603,5.362,5.3629,5.3521,5.355,5.3519,5.3484,5.3533,5.3553,5.3512,5.3651,5.3595,5.3608,5.3609,5.3635,5.3656,5.3675,5.3427,5.3426,5.3425,0,0,5.3918,5.3888,5.3927,5.3903,5.3865,5.3817,5.3827,5.3772,5.3746,5.3774,5.3693,5.3702,5.3705,5.3683,5.3673,5.3808,5.3746,5.3809,5.3905,5.3936,5.3953,5.3968,5.4016,5.4034,5.3818,5.3819,5.3819,0,5.4017,5.4031,5.3956,5.3978,5.3969,5.3872,5.3911,5.3892,5.3855,5.3851,5.3806,5.3806,5.3776,5.3818,5.3851,5.3846,5.3855,5.3814,5.3957,5.3971,5.3984,5.4028,5.4047,5.3827,5.3826,5.3825,5.3824,0,5.4154,5.4166,5.4203,5.4168,5.4163,5.4195,5.4124,5.4129,5.4079,5.4036,5.4065,5.4026,5.4012,5.4018,5.397,5.4054,5.4029,5.3972,5.3891,5.4015,5.4055,5.4071,5.3838,5.3835,5.3833,5.3831,0,0,5.4383,5.4305,5.432,5.4303,5.4253,5.4261,5.4287,5.4273,5.4278,5.4256,5.4276,5.428,5.4226,5.4215,5.4163,5.419,5.4299,5.4129,5.4127,5.4161,5.4387,5.443,5.4451,5.4258,5.4261,5.4263,5.439,0,5.4515,5.4555,5.4488,5.4544,5.4553,5.4461,5.4484,5.4456,5.4417,5.442,5.4377,5.4381,5.431,5.4302,5.4325,5.4281,5.4343,5.4271,5.4275,5.4276,5.4286,5.4472,5.4518,5.464,5.4405,5.4408,5.4409,0,5.4674,5.4659,5.4716,5.4662,5.4663,5.4685,5.4666,5.467,5.4636,5.4606,5.4593,5.4531,5.4553,5.4476,5.4505,5.4458,5.4456,5.4434,5.4437,5.4435,5.435,5.4474,5.4677,5.4695,5.4434,5.4432,5.443,0,5.4834,5.4828,5.486,5.4849,5.4787,5.4804,5.4779,5.4742,5.4737,5.4721,5.4717,5.4705,5.4698,5.4689,5.4625,5.4575,5.4662,5.458,5.4638,5.4639,5.466,5.4659,5.4865,5.466,5.466,5.4659,5.4659,0,5.4988,5.5027,5.4931,5.4952,5.4992,5.4914,5.4956,5.4922,5.4889,5.4901,5.4821,5.4834,5.475,5.4754,5.4704,5.4736,5.4733,5.4709,5.4695,5.4716,5.4719,5.4713,5.4703,5.4664,5.4663,5.4662,5.4661,0,5.5173,5.5111,5.514,5.5079,5.5064,5.5097,5.5044,5.506,5.5016,5.5032,5.5032,5.4963,5.4963,5.4899,5.4886,5.4853,5.4905,5.4877,5.4917,5.4907,5.4968,5.4963,5.5176,5.52,5.4981,5.4984,5.4985,0,5.5275,5.5302,5.5244,5.5245,5.5224,5.5229,5.5223,5.5148,5.5146,5.511,5.513,5.5124,5.5115,5.512,5.5069,5.5058,5.5028,5.5104,5.5026,5.5046,5.5028,5.5027,5.5029,5.512,5.5123,5.5125,5.5127,0,5.5463,5.543,5.5425,5.541,5.5406,5.5391,5.537,5.5376,5.5294,5.5296,5.5295,5.5288,5.5274,5.5269,5.5249,5.5223,5.5162,5.5152,5.5164,5.5185,5.5207,5.5195,5.496,5.5147,5.5145,5.5144,5.5143,5.5142,5.5608,5.5628,5.5589,5.5587,5.5563,5.5545,5.5557,5.5514,5.5512,5.5495,5.5451,5.5457,5.5422,5.5389,5.5368,5.5372,5.5334,5.5353,5.5357,5.5363,5.5374,5.5207,5.5368,5.5368,5.5367,5.5366,5.5366,0,5.5791,5.5761,5.576,5.5733,5.5731,5.5673,5.5647,5.5649,5.5655,5.5627,5.562,5.5618,5.5613,5.5561,5.5549,5.5562,5.5533,5.5561,5.5559,5.5554,5.5409,5.5399,5.5584,5.5584,5.5584,5.5584,5.5584,5.5584,5.5886,5.5915,5.5879,5.5896,5.5865,5.5871,5.5861,5.5844,5.5821,5.5823,5.5818,5.5784,5.5746,5.5731,5.5723,5.5708,5.5707,5.5744,5.572,5.5585,5.5564,5.5544,5.5534,5.5745,5.5745,5.5864,5.5865,5.5866]}]]